Tracking 18852 objects as of 24-Nov-2017
HD Live streaming from Space Station
objects crossing your sky now

FENGYUN 1C DEB

Track FENGYUN 1C DEB now!
10-day predictions


NORAD ID: 41007
Int'l Code: 1999-025EXM
Perigee: 846.3 km
Apogee: 1,123.2 km
Inclination: 100.0 °
Period: 104.6 minutes
Semi major axis: 7355 km
RCS: Unknown
Launch date: May 10, 1999
Source: People's Republic of China (PRC)
Launch site: Taiyaun Space Center, China (TSC)

Note: This is SATELLITE DEBRIS
aabbcc
Your satellite tracking list
Your tracking list is empty




NASA's NSSDC Master Catalog

Two Line Element Set (TLE):
1 41007U 99025EXM 17327.72918708  .00000652  00000-0  63139-3 0  9997
2 41007  99.9947 165.2133 0188227  91.3443 270.9274 13.76128262168659
Source of the keplerian elements: AFSPC